RYR8HF EGSS-EVRA

Flight info

Callsign RYR8HF
Flight time 2h 2m
Altitude 39000
Route CLN P44 SOMVA DCT MAVAS DCT ALASA DCT KOLJA DCT NINTA DCT ADAXA M405 ORVIX
Aircraft B38M/M-SADE3FGIJ1LRWY/SB1

Departure

Time 2026-05-05 03:12
Airport London Stansted Airport (EGSS)

Arrival

Time 2026-05-05 05:14
Airport Riga International Airport (EVRA)
Time Latitude Longitude Altitude Speed Heading
2026-05-05 02:45 51.89346 0.26040 357 ft 0 kts 223°
2026-05-05 03:01 51.89352 0.26050 357 ft 3 kts 223°
2026-05-05 03:01 51.89367 0.26073 358 ft 3 kts 223°
2026-05-05 03:01 51.89379 0.26091 355 ft 3 kts 235°
2026-05-05 03:01 51.89383 0.26111 356 ft 3 kts 296°
2026-05-05 03:02 51.89372 0.26134 356 ft 3 kts 313°
2026-05-05 03:02 51.89364 0.26148 361 ft 0 kts 313°
2026-05-05 03:06 51.89368 0.26141 356 ft 2 kts 313°
2026-05-05 03:06 51.89396 0.26093 356 ft 10 kts 313°
2026-05-05 03:06 51.89465 0.25973 351 ft 19 kts 313°
2026-05-05 03:06 51.89517 0.25791 360 ft 15 kts 242°
2026-05-05 03:07 51.89445 0.25679 355 ft 15 kts 221°
2026-05-05 03:07 51.89361 0.25554 354 ft 18 kts 223°
2026-05-05 03:07 51.89263 0.25407 351 ft 21 kts 223°
2026-05-05 03:07 51.89150 0.25236 353 ft 24 kts 223°
2026-05-05 03:08 51.89022 0.25045 358 ft 26 kts 223°
2026-05-05 03:08 51.88880 0.24835 355 ft 29 kts 223°
2026-05-05 03:08 51.88734 0.24616 359 ft 28 kts 223°
2026-05-05 03:08 51.88586 0.24397 351 ft 30 kts 222°
2026-05-05 03:09 51.88438 0.24171 351 ft 25 kts 223°
2026-05-05 03:09 51.88308 0.23975 357 ft 26 kts 223°
2026-05-05 03:09 51.88174 0.23773 351 ft 26 kts 222°
2026-05-05 03:09 51.88038 0.23571 359 ft 27 kts 223°
2026-05-05 03:10 51.87901 0.23364 355 ft 27 kts 223°
2026-05-05 03:10 51.87761 0.23153 356 ft 27 kts 225°
2026-05-05 03:10 51.87765 0.22976 361 ft 12 kts 312°
2026-05-05 03:10 51.87827 0.22869 353 ft 14 kts 313°
2026-05-05 03:11 51.87907 0.22729 349 ft 20 kts 312°
2026-05-05 03:11 51.87951 0.22664 345 ft 2 kts
2026-05-05 03:11 51.87964 0.22677 352 ft 4 kts 37°
2026-05-05 03:11 51.87974 0.22690 348 ft 0 kts 41°
2026-05-05 03:12 51.88130 0.22923 337 ft 70 kts 43°
2026-05-05 03:12 51.88670 0.23733 339 ft 142 kts 43°
2026-05-05 03:12 51.89504 0.24988 793 ft 171 kts 42°
2026-05-05 03:12 51.90424 0.26380 1557 ft 190 kts 41°
2026-05-05 03:13 51.91132 0.28165 2522 ft 197 kts 71°
2026-05-05 03:13 51.91267 0.30447 3300 ft 215 kts 91°
2026-05-05 03:13 51.90928 0.32939 3891 ft 237 kts 108°
2026-05-05 03:13 51.90304 0.35519 3980 ft 247 kts 111°
2026-05-05 03:14 51.89612 0.38171 4140 ft 261 kts 112°
2026-05-05 03:14 51.88897 0.40789 5262 ft 262 kts 113°
2026-05-05 03:14 51.88102 0.43588 6122 ft 277 kts 114°
2026-05-05 03:14 51.87273 0.46467 7046 ft 282 kts 115°
2026-05-05 03:15 51.86438 0.49336 8081 ft 285 kts 115°
2026-05-05 03:15 51.85577 0.52275 8989 ft 291 kts 115°
2026-05-05 03:15 51.84718 0.55208 9953 ft 295 kts 116°
2026-05-05 03:15 51.83812 0.58290 10689 ft 306 kts 116°
2026-05-05 03:16 51.83072 0.61596 11241 ft 320 kts 99°
2026-05-05 03:16 51.83026 0.65240 11862 ft 333 kts 86°
2026-05-05 03:16 51.83166 0.69013 12684 ft 336 kts 86°
2026-05-05 03:16 51.83305 0.72737 13546 ft 339 kts 87°
2026-05-05 03:17 51.83446 0.76615 14314 ft 342 kts 87°
2026-05-05 03:17 51.83591 0.80471 15033 ft 346 kts 87°
2026-05-05 03:17 51.83734 0.84324 15711 ft 350 kts 87°
2026-05-05 03:17 51.83884 0.88311 16410 ft 354 kts 87°
2026-05-05 03:18 51.84031 0.92259 17087 ft 357 kts 87°
2026-05-05 03:18 51.84178 0.96236 17737 ft 361 kts 87°
2026-05-05 03:18 51.84328 1.00311 18376 ft 365 kts 87°
2026-05-05 03:18 51.84478 1.04423 18927 ft 368 kts 88°
2026-05-05 03:19 51.84789 1.12761 20029 ft 374 kts 85°
2026-05-05 03:19 51.85463 1.16832 20584 ft 378 kts 67°
2026-05-05 03:19 51.86508 1.20757 21079 ft 382 kts 68°
2026-05-05 03:20 51.87556 1.24730 21615 ft 385 kts 67°
2026-05-05 03:20 51.88620 1.28719 22147 ft 388 kts 67°
2026-05-05 03:20 51.89699 1.32750 22655 ft 392 kts 67°
2026-05-05 03:20 51.90783 1.36795 23188 ft 394 kts 67°
2026-05-05 03:21 51.91877 1.40882 23683 ft 398 kts 67°
2026-05-05 03:21 51.92983 1.45018 24104 ft 401 kts 67°
2026-05-05 03:21 51.94092 1.49178 24523 ft 405 kts 67°
2026-05-05 03:21 51.95214 1.53385 24941 ft 408 kts 67°
2026-05-05 03:22 51.96338 1.57617 25360 ft 411 kts 67°
2026-05-05 03:22 51.97471 1.61886 25769 ft 414 kts 67°
2026-05-05 03:22 51.98616 1.66206 26167 ft 418 kts 67°
2026-05-05 03:22 51.99932 1.70433 26586 ft 421 kts 61°
2026-05-05 03:23 52.01353 1.74617 26967 ft 424 kts 62°
2026-05-05 03:23 52.02763 1.78848 27344 ft 427 kts 62°
2026-05-05 03:23 52.04167 1.83110 27737 ft 430 kts 62°
2026-05-05 03:23 52.05573 1.87404 28105 ft 433 kts 62°
2026-05-05 03:24 52.06998 1.91768 28484 ft 436 kts 62°
2026-05-05 03:24 52.08434 1.96128 28862 ft 439 kts 62°
2026-05-05 03:24 52.09885 2.00508 29226 ft 442 kts 62°
2026-05-05 03:24 52.11341 2.04918 29576 ft 445 kts 62°
2026-05-05 03:25 52.12810 2.09377 29924 ft 447 kts 62°
2026-05-05 03:25 52.14283 2.13855 30238 ft 450 kts 62°
2026-05-05 03:25 52.15758 2.18346 30554 ft 452 kts 62°
2026-05-05 03:25 52.17237 2.22862 30884 ft 453 kts 62°
2026-05-05 03:26 52.18725 2.27410 31210 ft 454 kts 62°
2026-05-05 03:26 52.20205 2.31942 31525 ft 456 kts 62°
2026-05-05 03:26 52.21698 2.36525 31823 ft 457 kts 62°
2026-05-05 03:26 52.23168 2.41044 32118 ft 459 kts 62°
2026-05-05 03:27 52.24666 2.45660 32401 ft 461 kts 62°
2026-05-05 03:27 52.26170 2.50298 32697 ft 462 kts 62°
2026-05-05 03:27 52.27669 2.54934 32998 ft 464 kts 62°
2026-05-05 03:27 52.29180 2.59613 33290 ft 465 kts 62°
2026-05-05 03:28 52.30716 2.64263 33552 ft 467 kts 58°
2026-05-05 03:28 52.32519 2.68668 33983 ft 465 kts 56°
2026-05-05 03:28 52.34295 2.73085 34313 ft 464 kts 57°
2026-05-05 03:28 52.36044 2.77501 34583 ft 464 kts 57°
2026-05-05 03:29 52.37788 2.81941 34858 ft 464 kts 57°
2026-05-05 03:29 52.39532 2.86397 35154 ft 464 kts 57°
2026-05-05 03:29 52.41270 2.90845 35440 ft 464 kts 57°
2026-05-05 03:29 52.43005 2.95297 35711 ft 464 kts 57°
2026-05-05 03:30 52.44742 2.99762 35978 ft 464 kts 57°
2026-05-05 03:30 52.46472 3.04215 36234 ft 464 kts 57°
2026-05-05 03:30 52.48195 3.08660 36489 ft 464 kts 57°
2026-05-05 03:30 52.49929 3.13139 36730 ft 464 kts 57°
2026-05-05 03:31 52.51658 3.17615 36966 ft 464 kts 58°
2026-05-05 03:31 52.53383 3.22086 37206 ft 464 kts 58°
2026-05-05 03:31 52.55110 3.26572 37425 ft 464 kts 58°
2026-05-05 03:31 52.56834 3.31059 37648 ft 464 kts 58°
2026-05-05 03:32 52.58557 3.35550 37840 ft 464 kts 58°
2026-05-05 03:32 52.60277 3.40041 38075 ft 464 kts 58°
2026-05-05 03:32 52.61998 3.44543 38267 ft 464 kts 58°
2026-05-05 03:32 52.63718 3.49048 38474 ft 464 kts 58°
2026-05-05 03:33 52.65432 3.53547 38656 ft 464 kts 58°
2026-05-05 03:33 52.67144 3.58051 38796 ft 465 kts 58°
2026-05-05 03:33 52.68859 3.62569 38931 ft 465 kts 58°
2026-05-05 03:33 52.70575 3.67097 38992 ft 465 kts 58°
2026-05-05 03:34 52.73996 3.76150 39000 ft 465 kts 58°
2026-05-05 03:34 52.77405 3.85204 38995 ft 465 kts 58°
2026-05-05 03:35 52.80812 3.94285 39000 ft 465 kts 58°
2026-05-05 03:35 52.84213 4.03382 39000 ft 465 kts 58°
2026-05-05 03:36 52.87610 4.12502 38999 ft 465 kts 58°
2026-05-05 03:36 52.91026 4.21707 38997 ft 466 kts 58°
2026-05-05 03:37 52.94410 4.30858 38992 ft 466 kts 58°
2026-05-05 03:37 52.97765 4.39964 38984 ft 466 kts 58°
2026-05-05 03:38 53.01136 4.49147 38980 ft 466 kts 58°
2026-05-05 03:38 53.04508 4.58366 38976 ft 467 kts 59°
2026-05-05 03:39 53.07878 4.67613 38977 ft 467 kts 59°
2026-05-05 03:39 53.11238 4.76868 38976 ft 468 kts 59°
2026-05-05 03:40 53.14589 4.86133 38982 ft 467 kts 59°
2026-05-05 03:40 53.17941 4.95434 38986 ft 468 kts 59°
2026-05-05 03:41 53.21279 5.04732 38987 ft 468 kts 59°
2026-05-05 03:41 53.24617 5.14062 38988 ft 468 kts 59°
2026-05-05 03:42 53.27946 5.23404 38983 ft 468 kts 59°
2026-05-05 03:42 53.31269 5.32763 38986 ft 469 kts 59°
2026-05-05 03:43 53.34593 5.42162 38981 ft 469 kts 59°
2026-05-05 03:43 53.37910 5.51575 38978 ft 469 kts 59°
2026-05-05 03:44 53.41200 5.60947 38978 ft 469 kts 59°
2026-05-05 03:44 53.44514 5.70426 38980 ft 470 kts 59°
2026-05-05 03:45 53.47790 5.79828 38978 ft 470 kts 59°
2026-05-05 03:45 53.51106 5.89383 38981 ft 470 kts 59°
2026-05-05 03:46 53.54396 5.98901 38987 ft 470 kts 59°
2026-05-05 03:46 53.57673 6.08416 38991 ft 471 kts 59°
2026-05-05 03:47 53.60945 6.17953 38990 ft 471 kts 60°
2026-05-05 03:47 53.64217 6.27532 38989 ft 471 kts 60°
2026-05-05 03:48 53.66931 6.35500 38988 ft 472 kts 60°
2026-05-05 03:48 53.70194 6.45116 38988 ft 472 kts 60°
2026-05-05 03:49 53.73447 6.54742 38992 ft 472 kts 60°
2026-05-05 03:49 53.76692 6.64382 38992 ft 472 kts 60°
2026-05-05 03:50 53.79931 6.74042 38990 ft 472 kts 60°
2026-05-05 03:50 53.83162 6.83715 38991 ft 473 kts 60°
2026-05-05 03:51 53.86392 6.93425 38992 ft 473 kts 60°
2026-05-05 03:51 53.89613 7.03145 38993 ft 473 kts 60°
2026-05-05 03:52 53.92832 7.12898 38992 ft 474 kts 60°
2026-05-05 03:52 53.96065 7.22733 38992 ft 480 kts 60°
2026-05-05 03:53 53.99326 7.32694 38988 ft 484 kts 60°
2026-05-05 03:53 54.02588 7.42700 38988 ft 484 kts 60°
2026-05-05 03:54 54.05848 7.52739 38983 ft 485 kts 61°
2026-05-05 03:54 54.09100 7.62799 38986 ft 485 kts 61°
2026-05-05 03:55 54.12345 7.72874 38987 ft 485 kts 61°
2026-05-05 03:55 54.15581 7.82967 38970 ft 485 kts 61°
2026-05-05 03:56 54.18792 7.93019 38982 ft 485 kts 61°
2026-05-05 03:56 54.22037 8.03223 38978 ft 486 kts 61°
2026-05-05 03:57 54.25254 8.13384 38983 ft 486 kts 61°
2026-05-05 03:57 54.28461 8.23553 38978 ft 486 kts 61°
2026-05-05 03:58 54.31666 8.33758 38973 ft 487 kts 61°
2026-05-05 03:58 54.34843 8.43920 38968 ft 487 kts 62°
2026-05-05 03:59 54.38030 8.54156 38975 ft 487 kts 62°
2026-05-05 03:59 54.41211 8.64415 38984 ft 487 kts 62°
2026-05-05 04:00 54.44382 8.74690 38962 ft 487 kts 62°
2026-05-05 04:00 54.47547 8.84985 38971 ft 488 kts 62°
2026-05-05 04:01 54.50710 8.95321 38971 ft 488 kts 62°
2026-05-05 04:01 54.53862 9.05664 38969 ft 488 kts 62°
2026-05-05 04:02 54.57009 9.16037 38972 ft 488 kts 62°
2026-05-05 04:02 54.60146 9.26412 38959 ft 488 kts 62°
2026-05-05 04:03 54.63277 9.36810 38966 ft 489 kts 62°
2026-05-05 04:03 54.66407 9.47244 38965 ft 489 kts 62°
2026-05-05 04:04 54.69528 9.57695 38959 ft 489 kts 62°
2026-05-05 04:04 54.72643 9.68167 38981 ft 490 kts 63°
2026-05-05 04:05 54.75750 9.78658 38985 ft 490 kts 63°
2026-05-05 04:05 54.78850 9.89173 38988 ft 490 kts 63°
2026-05-05 04:06 54.81570 9.99978 39001 ft 489 kts 72°
2026-05-05 04:06 54.83805 10.11164 38992 ft 491 kts 71°
2026-05-05 04:07 54.86096 10.22323 38976 ft 491 kts 71°
2026-05-05 04:07 54.88387 10.33511 38982 ft 492 kts 71°
2026-05-05 04:08 54.90652 10.44636 38970 ft 492 kts 71°
2026-05-05 04:08 54.92922 10.55845 38976 ft 492 kts 71°
2026-05-05 04:09 54.95186 10.67091 38968 ft 492 kts 71°
2026-05-05 04:09 54.97437 10.78338 38973 ft 493 kts 71°
2026-05-05 04:10 54.99680 10.89605 38962 ft 493 kts 71°
2026-05-05 04:10 55.01916 11.00903 38971 ft 493 kts 71°
2026-05-05 04:11 55.04134 11.12178 38964 ft 493 kts 71°
2026-05-05 04:11 55.06350 11.23508 38958 ft 493 kts 71°
2026-05-05 04:12 55.08559 11.34867 38957 ft 493 kts 71°
2026-05-05 04:12 55.10755 11.46224 38964 ft 493 kts 72°
2026-05-05 04:13 55.12935 11.57568 38965 ft 494 kts 72°
2026-05-05 04:13 55.15110 11.68955 38967 ft 494 kts 72°
2026-05-05 04:14 55.17277 11.80368 38968 ft 494 kts 72°
2026-05-05 04:14 55.19436 11.91805 38972 ft 495 kts 72°
2026-05-05 04:15 55.21584 12.03254 38967 ft 495 kts 72°
2026-05-05 04:15 55.23721 12.14714 38964 ft 495 kts 72°
2026-05-05 04:16 55.25848 12.26194 38962 ft 496 kts 72°
2026-05-05 04:16 55.27967 12.37694 38962 ft 496 kts 72°
2026-05-05 04:17 55.30081 12.49243 38963 ft 497 kts 72°
2026-05-05 04:17 55.32184 12.60801 38964 ft 497 kts 72°
2026-05-05 04:18 55.34275 12.72364 38962 ft 497 kts 73°
2026-05-05 04:18 55.36357 12.83957 38962 ft 497 kts 73°
2026-05-05 04:19 55.38408 12.95443 38952 ft 497 kts 73°
2026-05-05 04:19 55.40473 13.07084 38949 ft 498 kts 73°
2026-05-05 04:20 55.42517 13.18681 38946 ft 497 kts 73°
2026-05-05 04:20 55.44561 13.30356 38941 ft 497 kts 73°
2026-05-05 04:21 55.46591 13.42016 38938 ft 497 kts 73°
2026-05-05 04:21 55.48608 13.53687 38938 ft 497 kts 73°
2026-05-05 04:22 55.50614 13.65363 38937 ft 497 kts 73°
2026-05-05 04:22 55.52608 13.77053 38942 ft 498 kts 73°
2026-05-05 04:23 55.54591 13.88750 38938 ft 497 kts 73°
2026-05-05 04:23 55.56561 14.00453 38936 ft 497 kts 73°
2026-05-05 04:24 55.58522 14.12175 38931 ft 497 kts 73°
2026-05-05 04:25 55.61441 14.29777 38933 ft 497 kts 74°
2026-05-05 04:25 55.63370 14.41508 38932 ft 497 kts 74°
2026-05-05 04:26 55.65278 14.53190 38934 ft 497 kts 74°
2026-05-05 04:26 55.67185 14.64945 38929 ft 497 kts 74°
2026-05-05 04:27 55.69079 14.76695 38929 ft 497 kts 74°
2026-05-05 04:27 55.70964 14.88478 38924 ft 496 kts 74°
2026-05-05 04:28 55.72836 15.00260 38925 ft 496 kts 75°
2026-05-05 04:28 55.74695 15.12044 38925 ft 496 kts 75°
2026-05-05 04:29 55.76544 15.23843 38924 ft 496 kts 75°
2026-05-05 04:29 55.78382 15.35658 38924 ft 496 kts 75°
2026-05-05 04:30 55.80211 15.47495 38924 ft 496 kts 75°
2026-05-05 04:30 55.82025 15.59328 38920 ft 496 kts 75°
2026-05-05 04:31 55.83831 15.71191 38922 ft 496 kts 75°
2026-05-05 04:31 55.85624 15.83052 38923 ft 497 kts 75°
2026-05-05 04:32 55.87408 15.94934 38918 ft 497 kts 75°
2026-05-05 04:32 55.89179 16.06825 38920 ft 497 kts 76°
2026-05-05 04:33 55.90943 16.18735 38919 ft 497 kts 76°
2026-05-05 04:33 55.92692 16.30626 38917 ft 496 kts 76°
2026-05-05 04:34 55.94434 16.42545 38910 ft 496 kts 76°
2026-05-05 04:34 55.95875 16.52463 38912 ft 496 kts 76°
2026-05-05 04:35 55.97593 16.64379 38911 ft 496 kts 76°
2026-05-05 04:35 55.99306 16.76337 38908 ft 496 kts 76°
2026-05-05 04:36 56.01157 16.88203 38908 ft 496 kts 74°
2026-05-05 04:36 56.03066 17.00068 38905 ft 496 kts 74°
2026-05-05 04:37 56.04961 17.11928 38906 ft 496 kts 74°
2026-05-05 04:37 56.06847 17.23822 38905 ft 496 kts 75°
2026-05-05 04:38 56.08720 17.35715 38945 ft 498 kts 74°
2026-05-05 04:38 56.10584 17.47633 38907 ft 498 kts 74°
2026-05-05 04:39 56.12445 17.59622 38905 ft 498 kts 74°
2026-05-05 04:39 56.14287 17.71574 38904 ft 498 kts 74°
2026-05-05 04:40 56.16125 17.83584 38900 ft 498 kts 74°
2026-05-05 04:40 56.17947 17.95582 38898 ft 499 kts 74°
2026-05-05 04:41 56.19760 18.07605 38899 ft 499 kts 75°
2026-05-05 04:41 56.21563 18.19636 38894 ft 499 kts 75°
2026-05-05 04:42 56.23197 18.31741 38896 ft 498 kts 79°
2026-05-05 04:42 56.24576 18.43949 38892 ft 499 kts 78°
2026-05-05 04:43 56.25969 18.56087 38889 ft 499 kts 78°
2026-05-05 04:43 56.27360 18.68285 38889 ft 499 kts 78°
2026-05-05 04:44 56.28741 18.80513 38890 ft 499 kts 78°
2026-05-05 04:44 56.30328 18.92607 38890 ft 497 kts 70°
2026-05-05 04:45 56.32560 19.04455 38887 ft 498 kts 70°
2026-05-05 04:45 56.34792 19.16287 38885 ft 498 kts 70°
2026-05-05 04:46 56.37017 19.28150 38885 ft 498 kts 70°
2026-05-05 04:46 56.39227 19.40001 38884 ft 498 kts 71°
2026-05-05 04:47 56.41422 19.51846 38880 ft 498 kts 71°
2026-05-05 04:47 56.43607 19.63714 38880 ft 498 kts 71°
2026-05-05 04:48 56.45786 19.75627 38879 ft 498 kts 71°
2026-05-05 04:48 56.47955 19.87542 38876 ft 498 kts 71°
2026-05-05 04:49 56.50101 19.99471 38875 ft 499 kts 71°
2026-05-05 04:49 56.52242 20.11427 38875 ft 498 kts 71°
2026-05-05 04:50 56.54369 20.23374 38873 ft 498 kts 71°
2026-05-05 04:50 56.56487 20.35343 38875 ft 499 kts 72°
2026-05-05 04:51 56.58590 20.47307 38390 ft 496 kts 72°
2026-05-05 04:51 56.59639 20.53305 37336 ft 502 kts 72°
2026-05-05 04:51 56.60689 20.59333 36672 ft 500 kts 72°
2026-05-05 04:51 56.61730 20.65322 36134 ft 495 kts 72°
2026-05-05 04:52 56.62762 20.71282 35405 ft 496 kts 72°
2026-05-05 04:52 56.63796 20.77275 34638 ft 498 kts 72°
2026-05-05 04:52 56.64828 20.83277 33936 ft 497 kts 72°
2026-05-05 04:52 56.65853 20.89250 33231 ft 495 kts 72°
2026-05-05 04:53 56.66878 20.95248 32358 ft 496 kts 72°
2026-05-05 04:53 56.67900 21.01247 31543 ft 497 kts 73°
2026-05-05 04:53 56.68915 21.07229 30792 ft 496 kts 73°
2026-05-05 04:53 56.69931 21.13235 29964 ft 497 kts 73°
2026-05-05 04:54 56.70931 21.19168 28981 ft 499 kts 73°
2026-05-05 04:54 56.71947 21.25215 28109 ft 498 kts 73°
2026-05-05 04:54 56.72969 21.31319 27195 ft 498 kts 73°
2026-05-05 04:54 56.73963 21.37276 26246 ft 499 kts 73°
2026-05-05 04:55 56.74986 21.43427 25253 ft 501 kts 73°
2026-05-05 04:55 56.75996 21.49520 24217 ft 505 kts 73°
2026-05-05 04:55 56.77013 21.55680 23231 ft 507 kts 73°
2026-05-05 04:55 56.78004 21.61704 22631 ft 497 kts 73°
2026-05-05 04:56 56.78997 21.67760 22019 ft 488 kts 73°
2026-05-05 04:56 56.79940 21.73530 20798 ft 479 kts 73°
2026-05-05 04:56 56.80886 21.79341 19498 ft 475 kts 73°
2026-05-05 04:56 56.81818 21.85078 18372 ft 467 kts 73°
2026-05-05 04:57 56.82729 21.90709 17362 ft 456 kts 73°
2026-05-05 04:57 56.83603 21.96131 16934 ft 433 kts 73°
2026-05-05 04:57 56.84427 22.01253 16660 ft 409 kts 73°
2026-05-05 04:57 56.85207 22.06125 16358 ft 394 kts 73°
2026-05-05 04:58 56.85966 22.10867 16083 ft 386 kts 73°
2026-05-05 04:58 56.86712 22.15547 15827 ft 382 kts 73°
2026-05-05 04:58 56.87458 22.20229 15580 ft 387 kts 73°
2026-05-05 04:58 56.88211 22.24968 15355 ft 389 kts 73°
2026-05-05 04:59 56.88964 22.29721 15159 ft 388 kts 73°
2026-05-05 04:59 56.89711 22.34446 14964 ft 387 kts 73°
2026-05-05 04:59 56.90472 22.39166 14703 ft 386 kts 72°
2026-05-05 04:59 56.91247 22.43839 14367 ft 383 kts 72°
2026-05-05 05:00 56.92014 22.48480 14034 ft 381 kts 72°
2026-05-05 05:00 56.92778 22.53121 13693 ft 379 kts 72°
2026-05-05 05:00 56.93535 22.57731 13311 ft 378 kts 72°
2026-05-05 05:00 56.94290 22.62335 12941 ft 375 kts 72°
2026-05-05 05:01 56.95034 22.66895 12600 ft 372 kts 72°
2026-05-05 05:01 56.95773 22.71428 12260 ft 369 kts 72°
2026-05-05 05:01 56.96500 22.75896 11913 ft 364 kts 72°
2026-05-05 05:01 56.97216 22.80299 11590 ft 357 kts 73°
2026-05-05 05:02 56.97914 22.84610 11324 ft 350 kts 73°
2026-05-05 05:02 56.98599 22.88843 11007 ft 340 kts 73°
2026-05-05 05:02 56.99251 22.92889 10741 ft 323 kts 73°
2026-05-05 05:02 56.99875 22.96759 10465 ft 310 kts 73°
2026-05-05 05:03 57.00482 23.00539 10165 ft 309 kts 73°
2026-05-05 05:03 57.01088 23.04309 9867 ft 306 kts 72°
2026-05-05 05:03 57.01702 23.08039 9596 ft 305 kts 72°
2026-05-05 05:03 57.02315 23.11762 9365 ft 305 kts 72°
2026-05-05 05:04 57.02924 23.15466 9147 ft 304 kts 72°
2026-05-05 05:04 57.03534 23.19194 8901 ft 303 kts 73°
2026-05-05 05:04 57.04007 23.22093 8702 ft 302 kts 72°
2026-05-05 05:04 57.04613 23.25809 8463 ft 300 kts 73°
2026-05-05 05:05 57.05208 23.29464 8230 ft 299 kts 73°
2026-05-05 05:05 57.05800 23.33113 8004 ft 298 kts 73°
2026-05-05 05:05 57.06380 23.36696 7771 ft 296 kts 73°
2026-05-05 05:05 57.06976 23.40382 7529 ft 295 kts 73°
2026-05-05 05:06 57.07485 23.43539 7329 ft 293 kts 73°
2026-05-05 05:06 57.08026 23.46896 7113 ft 292 kts 73°
2026-05-05 05:06 57.08590 23.50407 6890 ft 291 kts 73°
2026-05-05 05:06 57.09159 23.53956 6662 ft 289 kts 73°
2026-05-05 05:07 57.09726 23.57498 6437 ft 288 kts 73°
2026-05-05 05:07 57.10285 23.61004 6205 ft 286 kts 73°
2026-05-05 05:07 57.10830 23.64420 5978 ft 275 kts 73°
2026-05-05 05:07 57.11353 23.67707 5779 ft 259 kts 73°
2026-05-05 05:08 57.11849 23.70833 5590 ft 251 kts 73°
2026-05-05 05:08 57.12331 23.73873 5378 ft 246 kts 73°
2026-05-05 05:08 57.12800 23.76829 5161 ft 240 kts 73°
2026-05-05 05:08 57.13271 23.79814 4985 ft 241 kts 73°
2026-05-05 05:09 57.13588 23.82816 4804 ft 241 kts 91°
2026-05-05 05:09 57.13465 23.85882 4676 ft 240 kts 96°
2026-05-05 05:09 57.13322 23.88949 4514 ft 240 kts 96°
2026-05-05 05:09 57.13176 23.92010 4330 ft 239 kts 96°
2026-05-05 05:10 57.12731 23.94901 4109 ft 233 kts 125°
2026-05-05 05:10 57.11619 23.96939 3835 ft 225 kts 153°
2026-05-05 05:10 57.10233 23.98249 3516 ft 224 kts 158°
2026-05-05 05:10 57.08810 23.99458 3144 ft 227 kts 162°
2026-05-05 05:11 57.07276 23.99838 2749 ft 222 kts 190°
2026-05-05 05:11 57.05744 23.99475 2435 ft 221 kts 190°
2026-05-05 05:11 57.04268 23.99176 2140 ft 206 kts 191°
2026-05-05 05:11 57.02962 23.98876 2089 ft 172 kts 191°
2026-05-05 05:12 57.01870 23.98686 2045 ft 143 kts 191°
2026-05-05 05:12 57.00910 23.98523 2032 ft 139 kts 191°
2026-05-05 05:12 56.99927 23.98367 1826 ft 143 kts 189°
2026-05-05 05:12 56.98947 23.98246 1496 ft 139 kts 189°
2026-05-05 05:13 56.98000 23.98124 1167 ft 136 kts 191°
2026-05-05 05:13 56.97077 23.97907 867 ft 134 kts 192°
2026-05-05 05:13 56.96143 23.97698 632 ft 133 kts 185°
2026-05-05 05:13 56.95222 23.97603 457 ft 132 kts 186°
2026-05-05 05:14 56.94324 23.97435 269 ft 130 kts 186°
2026-05-05 05:14 56.93421 23.97295 72 ft 129 kts 187°
2026-05-05 05:14 56.92631 23.97153 47 ft 90 kts 184°
2026-05-05 05:14 56.92179 23.97081 44 ft 49 kts 184°
2026-05-05 05:15 56.91863 23.97109 46 ft 31 kts 165°
2026-05-05 05:15 56.91729 23.97228 47 ft 14 kts 129°
2026-05-05 05:15 56.91727 23.97369 44 ft 11 kts 42°
2026-05-05 05:15 56.91793 23.97406 47 ft 10 kts 354°
2026-05-05 05:16 56.91810 23.97401 47 ft 0 kts 348°
2026-05-05 05:16 56.91811 23.97402 47 ft 0 kts
2026-05-05 05:16 56.91834 23.97409 45 ft 8 kts
2026-05-05 05:16 56.91918 23.97428 45 ft 17 kts
2026-05-05 05:17 56.92062 23.97450 45 ft 24 kts
2026-05-05 05:17 56.92244 23.97480 47 ft 27 kts
2026-05-05 05:17 56.92435 23.97520 47 ft 29 kts
2026-05-05 05:17 56.92597 23.97561 47 ft 5 kts 44°
2026-05-05 05:18 56.92609 23.97633 47 ft 6 kts 94°
2026-05-05 05:18 56.92601 23.97705 47 ft 4 kts 114°
2026-05-05 05:18 56.92588 23.97729 46 ft 1 kts 161°
2026-05-05 05:18 56.92579 23.97731 47 ft 3 kts 174°
2026-05-05 05:19 56.92556 23.97728 47 ft 1 kts 186°
2026-05-05 05:19 56.92552 23.97727 47 ft 1 kts 186°
2026-05-05 05:19 56.92546 23.97726 47 ft 0 kts 185°